Theta_e
332 330 329 329 332 334 334 334 336 336 332 329 327 327 329 329 330 332 329 326 327 325 323 321 322 325 319 319 318 317 316 315
328 328 326 325 333 331 328 327 326 324 325 323 323 324 325 324 326 328 325 322 322 321 320 320 320 320 318 318 316 316 314 314
327 328 326 329 325 326 325 325 323 323 322 322 323 323 322 323 324 324 323 322 321 322 322 322 321 321 319 318 316 315 313 312
324 325 325 324 325 326 325 323 323 323 322 322 321 320 321 322 322 322 322 323 322 323 322 322 321 320 319 317 315 314 312 310
324 324 322 323 325 325 325 324 323 323 322 322 323 324 325 324 324 324 325 323 322 322 320 318 320 318 317 317 316 314 311 310
324 324 323 324 322 321 324 324 324 323 322 324 325 326 326 326 326 326 326 325 324 321 319 320 318 318 316 315 313 311 309 309
323 324 323 322 322 321 322 324 323 324 324 325 326 326 325 325 326 325 325 326 326 322 320 321 318 315 314 314 311 310 308 309
323 322 321 320 318 318 318 318 319 322 324 324 324 324 324 325 323 323 323 324 325 322 319 319 316 313 312 311 309 309 308 307
320 319 318 317 316 315 315 315 317 317 318 318 319 317 320 321 321 320 321 321 322 322 320 319 317 313 311 311 309 308 307 307
314 314 314 313 313 313 313 313 316 316 317 317 317 316 319 319 321 318 320 320 318 319 320 319 318 314 310 309 308 308 307 307
311 311 313 314 314 315 315 314 315 315 316 316 315 315 316 315 315 317 318 317 315 315 317 318 318 313 310 309 308 308 307 307
311 311 312 313 313 314 313 314 314 313 312 308 306 306 307 310 310 312 308 311 311 314 313 314 315 313 310 309 311 310 308 305
308 308 309 310 311 310 310 309 308 307 306 305 304 304 305 307 306 305 305 307 309 312 312 313 313 311 310 310 310 309 308 306
306 308 308 308 308 308 308 306 306 305 303 303 303 303 302 302 303 305 306 306 307 309 310 311 311 312 313 312 309 308 308 307
304 304 304 304 304 306 305 305 306 304 302 302 302 303 303 302 302 304 304 305 307 308 308 309 310 311 312 312 309 309 309 307
302 303 302 302 303 303 302 302 301 301 301 302 302 303 301 301 302 302 304 305 309 309 308 309 309 310 311 311 310 309 309 308
304 303 301 300 301 301 300 300 300 301 301 301 302 302 301 300 301 302 303 306 307 309 308 308 308 311 311 311 309 309 310 309
304 302 301 301 302 300 300 300 300 300 301 300 302 301 301 301 301 301 303 304 306 307 307 308 308 309 309 310 308 310 310 308
300 300 301 301 301 299 300 300 301 303 302 300 300 301 302 302 302 303 303 304 305 306 307 308 307 306 306 307 306 306 305 305
299 300 301 301 299 299 300 300 303 303 301 300 301 301 303 302 302 302 303 304 306 307 305 305 303 302 302 302 302 302 302 303
Wind_Speed
6 3 2 12 7 7 8 5 8 10 7 4 3 3 3 3 2 2 2 3 2 3 2 3 3 9 4 5 4 4 6 5
9 9 12 11 11 10 9 8 6 7 3 3 3 3 2 3 3 2 2 2 3 4 3 3 3 2 4 3 2 4 4 4
11 12 12 10 13 12 11 12 10 7 7 4 4 4 4 4 4 4 2 3 3 3 3 2 2 2 2 2 1 3 3 4
12 14 12 13 13 13 12 14 10 7 8 7 4 4 4 4 3 3 4 3 3 3 2 1 1 2 2 2 2 2 2 3
12 13 11 10 8 8 10 8 9 10 8 6 4 4 4 5 5 6 6 5 3 3 2 1 0 1 1 2 3 4 4 4
10 10 9 6 8 9 9 7 9 7 6 5 4 4 4 5 5 4 5 5 4 2 2 3 3 1 1 2 2 2 1 2
9 7 9 11 10 9 10 11 8 6 6 5 5 6 5 4 5 5 6 6 5 4 4 3 3 2 2 1 1 0 2 3
9 11 11 10 10 10 12 9 10 8 4 4 5 5 5 4 4 4 7 6 5 6 2 1 3 1 1 1 1 2 2 2
11 11 9 9 9 10 9 8 7 7 5 4 2 3 3 2 1 5 5 5 7 6 3 0 2 2 1 3 2 1 2 2
8 6 5 6 5 6 7 6 6 5 3 2 3 3 2 4 3 5 6 6 6 8 6 4 5 3 3 3 4 2 2 1
5 4 4 4 6 6 5 6 5 5 5 3 3 2 2 2 3 3 3 5 5 4 5 6 5 4 3 2 4 4 2 0
1 2 3 4 4 4 5 5 7 5 5 5 5 3 3 3 3 3 5 5 5 4 3 4 3 2 2 4 4 2 2 2
4 5 5 4 5 5 5 6 7 7 7 6 4 4 2 3 3 6 5 5 5 5 4 4 2 2 2 3 3 3 3 2
5 6 6 7 7 6 6 7 6 6 5 6 6 5 6 5 5 4 3 3 4 4 6 4 3 2 2 1 2 4 4 4
5 6 7 7 6 5 4 5 6 6 7 7 7 6 6 7 7 5 7 5 3 6 4 4 2 3 4 4 4 4 4 3
5 5 6 4 3 4 5 6 6 7 6 7 6 5 3 3 4 5 5 4 5 5 5 4 5 5 4 3 2 2 4 4
2 2 1 3 4 5 6 6 6 6 6 6 5 4 5 5 7 5 4 5 5 5 5 5 4 4 4 4 2 1 1 2
1 3 3 3 4 4 5 5 5 6 6 5 5 5 5 5 5 6 6 5 6 6 6 6 4 4 4 4 4 2 3 3
3 3 3 4 4 5 6 6 6 6 5 6 6 5 5 5 4 5 5 4 5 6 6 4 6 6 7 4 4 7 6 3
3 3 4 4 6 6 6 6 7 6 5 5 5 5 6 6 6 7 6 5 6 6 6 6 6 6 6 6 6 6 5 4
Wind_Direction
125 118 44 43 54 45 10 354 26 63 29 11 27 2 12 28 63 76 34 38 65 82 74 63 62 77 63 54 42 43 18 11
25 20 40 44 50 41 7 8 56 62 73 60 50 36 15 12 15 43 60 37 59 91 97 103 90 112 109 86 28 18 19 4
26 58 49 47 46 38 24 41 24 44 55 48 40 26 34 42 41 48 80 85 81 85 104 107 108 99 103 89 6 20 360 8
43 50 51 51 49 34 32 35 41 40 68 54 60 65 51 43 35 51 67 96 113 118 95 77 114 101 65 62 14 12 359 3
52 62 60 60 57 55 45 48 29 37 22 40 45 43 55 46 33 26 26 8 6 59 37 325 275 126 28 17 20 7 355 351
61 62 67 66 67 49 47 45 43 23 33 22 29 29 36 44 29 349 9 348 8 344 91 280 227 224 122 51 35 328 331 338
50 44 50 45 45 42 48 42 26 24 6 24 21 24 30 24 32 3 349 343 323 266 247 259 219 313 24 54 75 211 308 341
43 40 43 42 40 50 49 42 26 22 23 20 15 12 1 13 21 358 332 341 349 282 315 283 356 262 268 201 261 347 310 330
38 33 32 38 38 48 45 44 22 31 4 353 14 356 337 321 335 341 340 339 346 318 261 63 208 226 326 323 11 294 303 342
35 34 35 42 45 40 32 20 30 29 19 332 324 329 335 323 321 334 324 320 335 316 286 266 216 189 225 185 215 186 253 225
27 15 15 25 36 27 17 350 10 4 351 319 302 312 321 285 317 324 307 309 314 314 307 273 217 166 179 215 217 185 226 223
296 332 7 5 4 357 338 342 355 348 346 356 357 317 320 313 307 295 308 320 320 341 327 341 65 170 195 212 211 201 165 235
342 346 343 326 341 336 341 342 344 352 357 358 345 331 278 295 315 321 321 320 329 331 347 22 25 225 210 246 260 206 196 193
331 315 334 326 336 337 340 341 337 342 341 339 339 322 321 332 328 319 319 307 307 321 336 338 355 254 233 236 237 261 247 231
307 325 320 312 324 337 336 349 329 339 343 333 327 327 336 339 330 327 325 322 309 320 332 324 312 291 272 240 181 233 228 223
276 310 295 301 20 5 345 359 346 340 332 314 312 322 322 309 315 309 300 295 308 316 313 318 323 318 308 268 271 222 213 221
271 302 149 3 347 357 339 333 326 320 309 306 314 334 333 316 306 292 289 304 312 317 318 307 315 319 331 324 290 230 152 180
128 178 22 344 338 313 326 332 300 292 308 315 311 318 324 317 314 321 331 336 332 332 336 341 0 18 7 7 338 12 89 108
93 20 355 319 327 352 337 328 309 321 340 324 332 335 339 338 337 342 345 330 337 342 352 12 38 28 13 14 20 32 28 343
61 28 12 356 351 339 327 333 339 338 334 346 349 344 348 353 351 339 333 352 353 19 29 26 33 29 22 19 22 15 20 13